Location: Auttagershofen
(48.1940°N, 10.0237°E)
Time: 21:46:11
(UTC+00:00)

ATLAS CENTAUR R/B - Pass Details

Date: 18 January 2026
Orbit: 307 x 351 km, 64.6° (Epoch: 17 February)

Event Time Altitude Azimuth Distance (km) Brightness Sun altitude
Exits shadow 04:16:22 13° 123° (ESE) 1,203 3.7 -27.3°
Drops below altitude 10° 04:16:44 10° 125° (SE) 1,351 4.0 -27.3°
Enters shadow 05:15:03 -61° 332° (NNW) 11,621 8.0 -17.6°
